Location: *
(37.9500°N, 27.3666°E)
Time: 04:50:36
(UTC+00:00)

ARGOS - Pass Details

Date: 24 October 2021
Orbit: 820 x 835 km, 98.4° (Epoch: 03 December)

Event Time Altitude Azimuth Distance (km) Brightness Sun altitude
Rises 16:36:07 0° 164° (SSE) 3,352 6.2 -15.5°
Reaches altitude 10° 16:38:27 10° 163° (SSE) 2,425 5.4 -15.9°
Maximum altitude 16:43:50 85° 77° (ENE) 839 3.1 -17.0°
Drops below altitude 10° 16:49:16 10° 348° (NNW) 2,449 5.7 -18.0°
Sets 16:51:38 0° 348° (NNW) 3,388 6.5 -18.5°
